Lake Charles Regional, LA

4:27 AM CDT on July 25, 2017 (GMT -0500)
Lake Charles Regional

Weather History for KLCH - August, 2013

Change the Weather History Date:

Sunday, August 11, 2013

  Actual Average Record
Temperature  
Mean Temperature 85 °F 83 °F  
Max Temperature 93 °F 92 °F 102 °F (2015)
Min Temperature 76 °F 74 °F 66 °F (1989)
Degree Days  
Heating Degree Days 0 0  
Month to date heating degree days 0 0  
Since 1 June heating degree days 0 0  
Since 1 July heating degree days 0 0  
Cooling Degree Days 20 18  
Month to date cooling degree days 238 198  
Year to date cooling degree days 1842 1769  
Since 1 June cooling degree days 1357 1231  
Growing Degree Days 34 (Base 50)    
Moisture  
Dew Point 74 °F    
Average Humidity 75    
Maximum Humidity 94    
Minimum Humidity 56    
Precipitation  
Precipitation 0.07 in 0.15 in 2.44 in (1988)
Month to date precipitation 0.16 1.82  
Year to date precipitation 35.45 35.18  
Snow  
Snow 0.00 in 0.00 in 0.00 in ()
Month to date snowfall 0.0 0.0  
Since 1 June snowfall 0.0 0.0  
Since 1 July snowfall 0.0 0.0  
Snow Depth 0.00 in    
Sea Level Pressure  
Sea Level Pressure 30.07 in    
Wind  
Wind Speed 7 mph (SE)    
Max Wind Speed 23 mph    
Max Gust Speed 26 mph    
Visibility 9 miles    
Events Rain , Thunderstorm    
T = Trace of Precipitation, MM = Missing Value Source: NWS Daily Summary

Daily Weather History Graph

Daily Weather History Graph

Search for Another Location

Airport or City:

Trip Planner

Search our weather history database for the weather conditions in past years. The results will help you decide how hot, cold, wet, or windy it might be!

Date:

Astronomy

Aug. 11, 2013 Rise Set
Actual Time 6:37 AM CDT 7:57 PM CDT
Civil Twilight 6:12 AM CDT 8:23 PM CDT
Nautical Twilight 5:42 AM CDT 8:53 PM CDT
Astronomical Twilight 5:10 AM CDT 9:24 PM CDT
Moon 11:00 AM CDT (8/11) 10:41 PM CDT (8/11)
Length of Visible Light 14h 10m
Length of Day
13h 19m
Waxing Crescent, 22% of the Moon is Illuminated
Aug 11
Waxing Crescent
Aug 14
First Quarter
Aug 20
Full
Aug 28
Last Quarter
Sep 5
New

Hourly Weather History & Observations

Time (CDT) Temp. Heat Index Dew Point Humidity Pressure Visibility Wind Dir Wind Speed Gust Speed Precip Events Conditions
12:53 AM 78.1 °F - 75.0 °F 90% 30.06 in 10.0 mi Calm Calm - N/A   Clear
1:53 AM 77.0 °F - 75.0 °F 94% 30.04 in 10.0 mi SE 3.5 mph - N/A   Clear
2:53 AM 78.1 °F - 75.0 °F 90% 30.04 in 10.0 mi East 4.6 mph - N/A   Clear
3:53 AM 77.0 °F - 75.0 °F 94% 30.05 in 10.0 mi NE 4.6 mph - N/A   Clear
4:53 AM 77.0 °F - 75.0 °F 94% 30.06 in 10.0 mi ENE 3.5 mph - N/A   Clear
5:53 AM 77.0 °F - 75.0 °F 94% 30.06 in 9.0 mi ENE 4.6 mph - N/A   Clear
6:53 AM 77.0 °F - 75.0 °F 94% 30.08 in 7.0 mi ENE 4.6 mph - N/A   Clear
7:53 AM 79.0 °F - 75.9 °F 90% 30.08 in 10.0 mi East 4.6 mph - N/A   Clear
8:53 AM 82.9 °F 91.8 °F 77.0 °F 82% 30.09 in 10.0 mi ESE 8.1 mph - N/A   Clear
9:53 AM 87.1 °F 97.3 °F 75.9 °F 69% 30.10 in 10.0 mi ESE 8.1 mph - N/A   Clear
10:53 AM 89.1 °F 96.0 °F 72.0 °F 57% 30.11 in 10.0 mi ESE 6.9 mph - N/A   Scattered Clouds
11:53 AM 90.0 °F 96.4 °F 71.1 °F 54% 30.09 in 10.0 mi East 9.2 mph - N/A   Scattered Clouds
12:53 PM 91.0 °F 100.4 °F 73.9 °F 57% 30.08 in 10.0 mi South 9.2 mph - N/A   Clear
1:24 PM 91.4 °F 98.4 °F 71.6 °F 52% 30.05 in 10.0 mi South 6.9 mph 16.1 mph 0.00 in Thunderstorm Scattered Clouds
1:53 PM 88.0 °F 96.5 °F 73.9 °F 63% 30.09 in 10.0 mi SSE 15.0 mph 24.2 mph 0.00 in Thunderstorm Mostly Cloudy
2:19 PM 89.6 °F 98.2 °F 73.4 °F 59% 30.05 in 10.0 mi SSE 11.5 mph 19.6 mph N/A   Partly Cloudy
2:33 PM 89.6 °F 96.2 °F 71.6 °F 55% 30.06 in 10.0 mi SSE 8.1 mph - N/A Thunderstorm Clear
2:53 PM 91.9 °F 98.4 °F 71.1 °F 50% 30.07 in 10.0 mi SE 10.4 mph 16.1 mph N/A   Clear
3:53 PM 91.9 °F 100.7 °F 73.0 °F 54% 30.06 in 10.0 mi South 9.2 mph - N/A   Mostly Cloudy
4:53 PM 88.0 °F 97.5 °F 75.0 °F 65% 30.06 in 4.0 mi SE 21.9 mph 26.5 mph 0.00 in Rain Light Rain
5:01 PM 82.4 °F 88.2 °F 73.4 °F 74% 30.04 in 2.5 mi SSW 5.8 mph 26.5 mph 0.07 in Rain Light Rain
5:07 PM 82.4 °F 89.5 °F 75.2 °F 79% 30.03 in 10.0 mi SW 4.6 mph - 0.07 in Thunderstorm Mostly Cloudy
5:28 PM 84.2 °F 92.3 °F 75.2 °F 74% 30.03 in 10.0 mi South 5.8 mph - 0.07 in   Scattered Clouds
5:53 PM 86.0 °F 95.1 °F 75.0 °F 70% 30.06 in 10.0 mi SSE 10.4 mph - 0.07 in   Scattered Clouds
6:53 PM 84.9 °F 92.1 °F 73.9 °F 69% 30.06 in 10.0 mi South 5.8 mph - N/A   Partly Cloudy
7:53 PM 84.0 °F 92.6 °F 75.9 °F 76% 30.07 in 10.0 mi SSE 5.8 mph - N/A   Clear
8:53 PM 81.0 °F 87.3 °F 75.9 °F 85% 30.07 in 10.0 mi SSE 4.6 mph - N/A   Clear
9:53 PM 80.1 °F 85.4 °F 75.9 °F 87% 30.08 in 10.0 mi SSE 5.8 mph - N/A   Clear
10:53 PM 79.0 °F - 75.0 °F 88% 30.09 in 10.0 mi SE 4.6 mph - N/A   Clear
11:53 PM 78.1 °F - 75.0 °F 90% 30.09 in 10.0 mi SSE 3.5 mph - N/A   Clear